EHI
0 0 0 0 0 0 0 0 0 0 0 0 0 0 0 0 0 0 0 0 0 0 0 0 1 2 3 2 1 2 3 4 2 1 0 0 0 0 0 0 0 0 0 0
0 0 0 0 0 0 0 0 0 0 0 0 0 0 0 0 0 0 0 0 0 0 0 0 0 1 2 2 2 3 4 3 2 1 0 0 0 0 0 0 0 0 0 0
0 0 0 0 0 0 0 0 0 0 0 0 0 0 0 0 0 0 0 0 0 0 0 0 0 0 1 1 2 2 2 1 1 0 0 0 0 0 0 0 0 0 0 0
0 0 0 0 0 0 0 0 0 0 0 0 0 0 0 0 0 0 0 0 0 0 0 0 0 0 0 0 1 1 1 0 0 0 0 0 0 0 0 0 0 0 0 0
0 0 0 0 0 0 0 0 0 0 0 0 0 0 0 0 0 0 0 0 0 0 0 0 0 0 0 0 0 0 0 0 0 0 0 0 0 0 0 0 0 0 0 0
0 0 0 0 0 0 0 0 0 0 0 0 0 0 0 0 0 0 0 0 0 0 0 0 0 0 0 0 0 0 0 0 0 0 0 0 0 0 0 0 0 0 0 0
0 0 0 0 0 0 0 0 0 0 0 0 0 0 0 0 0 0 0 0 0 0 0 0 0 0 0 0 0 0 0 0 0 0 0 0 0 0 0 0 0 0 0 0
0 0 0 0 0 0 0 0 0 0 0 0 0 0 0 0 0 0 0 0 0 0 0 0 0 0 0 0 0 0 0 0 0 0 0 0 0 0 0 0 0 0 0 0
0 0 0 0 0 0 0 0 0 0 0 0 0 0 0 0 0 0 0 0 0 0 0 0 0 0 0 0 0 0 0 0 0 0 0 0 0 0 0 0 0 0 0 0
0 0 0 0 0 0 0 0 0 0 0 0 0 0 0 0 0 0 0 0 0 0 0 0 0 0 0 0 0 0 0 0 0 0 0 0 0 0 0 0 0 0 0 0
0 0 0 0 0 0 0 0 0 0 0 0 0 0 0 0 0 0 0 0 0 0 0 0 0 0 0 0 0 0 0 0 0 0 0 0 0 0 0 0 0 0 0 0
0 0 0 0 0 0 0 0 0 0 0 0 0 0 0 0 0 0 0 0 0 0 0 0 0 0 0 0 0 0 0 0 0 0 0 0 0 0 0 0 0 0 0 0
0 0 0 0 0 0 0 0 0 0 0 0 0 0 0 0 0 0 0 0 0 0 0 0 0 0 0 0 0 0 0 0 0 0 0 0 0 0 0 0 0 0 0 0
0 0 0 0 0 0 0 0 0 0 0 0 0 0 0 0 0 0 0 0 0 0 0 0 0 0 0 0 0 0 0 0 0 0 0 0 0 0 0 0 0 0 0 0
0 0 0 0 0 0 0 0 0 0 0 0 0 0 0 0 0 0 0 0 0 0 0 0 0 0 0 0 0 0 0 0 0 0 0 0 0 0 0 0 0 0 0 0
0 0 0 0 0 0 0 0 0 0 0 0 0 0 0 0 0 0 0 0 0 0 0 0 0 0 0 0 0 0 0 0 0 0 0 0 0 0 0 0 0 0 0 0
0 0 0 0 0 0 0 0 0 0 0 0 0 0 0 0 0 0 0 0 0 0 0 0 0 0 0 0 0 0 0 0 0 0 0 0 0 0 0 0 0 0 0 0
0 0 0 0 0 0 0 0 0 0 0 0 0 0 0 0 0 0 0 0 0 0 0 0 0 0 0 0 0 0 0 0 0 0 0 0 0 0 0 0 0 0 0 0
0 0 0 0 0 0 0 0 0 0 0 0 0 0 0 0 0 0 0 0 0 0 0 0 0 0 0 0 0 0 0 0 0 0 0 0 0 0 0 0 0 0 0 0
0 0 0 0 0 0 0 0 0 0 0 0 0 0 0 0 0 0 0 0 0 0 0 0 0 0 0 0 0 0 0 0 0 0 0 0 0 0 0 0 0 0 0 0
0 0 0 0 0 0 0 0 0 0 0 0 0 0 0 0 0 0 0 0 0 0 0 0 0 0 0 0 0 0 0 0 0 0 0 0 0 0 0 0 0 0 0 0
0 0 0 0 0 0 0 0 0 0 0 0 0 0 0 0 0 0 0 0 0 0 0 0 0 0 0 0 0 0 0 0 0 0 0 0 0 0 0 0 0 0 0 0
0 0 0 0 0 0 0 0 0 0 0 0 0 0 0 0 0 0 0 0 0 0 0 0 0 0 0 0 0 0 0 0 0 0 0 0 0 0 0 0 0 0 0 0
0 0 0 0 0 0 0 0 0 0 0 0 0 0 0 0 0 0 0 0 0 0 0 0 0 0 0 0 0 0 0 0 0 0 0 0 0 0 0 0 0 0 0 0
0 0 0 0 0 0 0 0 0 0 0 0 0 0 0 0 0 0 0 0 0 0 0 0 0 0 0 0 0 0 0 0 0 0 0 0 0 0 0 0 0 0 0 0
0 0 0 0 0 0 0 0 0 0 0 0 0 0 0 0 0 0 0 0 0 0 0 0 0 0 0 0 0 0 0 0 0 0 0 0 0 0 0 0 0 0 0 0
0 0 0 0 0 0 0 0 0 0 0 0 0 0 0 0 0 0 0 0 0 0 0 0 0 0 0 0 0 0 0 0 0 0 0 0 0 0 0 0 0 0 0 0
Wind_Speed
5 4 2 3 3 5 6 7 8 7 5 4 5 5 5 4 2 1 1 2 4 6 6 6 6 7 8 8 8 8 9 10 11 10 8 8 8 8 8 8 10 9 8 8
2 1 3 2 2 3 4 3 4 3 3 1 2 3 6 7 7 6 4 3 2 2 2 3 5 6 6 6 6 7 8 10 8 7 7 8 9 8 8 9 8 8 9 9
3 2 2 4 5 4 4 3 5 5 4 1 3 8 8 8 8 8 8 6 5 3 2 2 2 3 4 4 4 6 7 6 5 6 7 8 7 7 8 9 8 9 10 10
2 2 5 7 2 3 3 2 2 2 3 3 5 5 6 7 8 10 10 9 9 6 5 4 4 3 2 3 3 3 2 2 2 3 5 4 5 7 8 6 7 8 9 9
4 3 5 5 2 4 4 2 2 4 4 4 5 5 8 9 8 9 9 8 8 8 7 7 8 6 6 6 4 3 0 1 2 3 4 4 6 7 6 5 7 7 6 8
4 3 6 6 2 3 3 3 3 5 5 3 2 4 2 5 6 9 9 8 9 9 11 12 10 7 8 7 6 4 3 2 2 1 2 4 5 5 4 5 6 6 7 7
4 4 7 3 2 5 4 7 2 5 4 2 3 4 4 3 6 8 8 8 8 9 10 9 8 8 10 8 7 4 3 4 4 3 2 2 3 2 3 3 4 5 7 7
4 3 7 1 4 6 5 0 3 5 5 7 9 8 7 6 6 7 8 8 8 8 8 7 7 8 9 7 5 5 5 5 5 4 4 3 2 2 2 3 4 5 6 7
8 7 3 1 2 2 3 3 3 5 8 11 10 8 6 6 6 6 6 6 5 6 6 7 7 7 7 5 5 5 6 6 5 5 4 4 3 3 3 3 3 4 5 6
3 4 2 1 1 1 3 4 7 9 10 10 10 8 7 5 4 4 4 4 4 5 6 5 6 5 4 4 4 5 6 5 5 5 5 4 3 3 3 4 4 5 5 7
3 2 2 1 2 4 7 9 11 11 9 9 10 8 6 4 3 3 2 2 3 3 3 3 4 4 4 4 4 5 4 4 4 4 4 4 4 3 4 4 5 6 6 7
7 6 6 4 3 7 11 10 11 11 8 6 7 7 6 4 2 2 2 2 2 2 2 2 3 4 4 3 3 3 3 4 3 4 4 4 4 6 6 7 11 12 12 12
2 3 5 7 6 7 9 10 10 10 8 7 5 5 5 3 2 2 1 1 1 1 2 3 3 4 5 4 2 2 3 4 3 4 4 5 5 6 8 9 9 11 13 14
5 7 7 5 6 7 10 9 9 8 6 6 5 4 4 3 2 1 1 2 2 2 3 3 4 5 5 4 3 3 4 5 5 4 5 5 6 6 6 8 10 9 10 13
6 7 8 8 8 8 8 8 9 7 5 4 4 4 3 3 1 2 3 2 2 3 4 4 5 6 5 4 4 4 4 4 4 5 5 5 6 6 7 8 9 10 10 11
9 12 12 12 10 8 7 7 7 5 4 3 2 2 1 1 2 3 3 2 2 4 5 5 6 6 5 4 4 4 4 9 8 5 6 6 6 7 7 8 9 9 10 10
11 9 10 9 8 6 5 4 4 4 3 2 2 1 1 2 3 4 5 4 3 4 5 5 6 6 4 3 3 3 4 6 10 7 6 6 7 8 8 8 9 10 10 11
8 7 7 8 7 6 4 3 2 2 2 2 1 1 2 3 4 6 6 5 4 5 5 4 4 4 4 4 3 3 4 5 5 6 6 7 8 8 8 9 10 11 10 11
9 8 7 6 6 5 3 2 2 2 2 1 1 3 4 5 5 5 4 3 4 5 5 5 6 5 5 6 6 3 4 6 6 6 7 8 8 8 8 9 10 10 10 10
8 7 6 5 3 2 1 1 1 2 3 2 2 3 5 5 5 4 3 2 2 3 4 4 4 4 5 6 7 4 5 6 7 7 7 8 8 9 9 10 10 10 10 9
6 4 4 2 1 1 1 2 2 3 3 3 3 4 5 5 4 2 1 2 3 3 3 5 4 4 4 6 7 5 5 6 6 7 7 8 9 9 10 10 10 10 10 9
2 2 2 1 2 3 3 2 2 3 3 3 3 3 3 4 3 2 1 0 2 3 3 4 4 6 8 7 5 5 6 7 7 7 7 8 9 9 10 11 10 10 10 9
1 1 2 2 2 3 3 3 3 3 3 3 3 3 2 2 1 0 1 2 2 4 4 4 7 10 10 6 5 6 7 8 8 8 8 9 9 9 9 11 10 10 10 9
1 1 2 2 1 2 3 3 4 3 3 3 3 3 1 1 2 2 2 4 6 6 5 6 10 11 9 5 5 6 7 7 8 8 9 9 9 9 9 9 9 9 9 11
1 1 1 2 1 1 2 3 3 3 3 3 3 4 3 2 2 3 4 5 7 6 5 7 10 10 7 5 6 7 7 7 8 9 9 9 9 9 9 9 9 9 9 9
1 1 1 1 1 2 2 2 2 2 2 2 2 3 3 4 5 4 4 6 7 6 5 4 5 6 6 6 7 7 7 8 9 8 9 9 10 10 9 10 12 10 9 9
2 2 2 2 2 2 2 2 2 2 2 1 1 2 3 4 5 5 5 5 4 4 4 4 5 5 6 6 7 7 7 7 8 8 9 9 9 9 10 11 9 9 9 9
Wind_Direction
233 235 192 220 221 176 182 190 191 226 229 285 316 319 330 340 340 5 324 258 228 223 222 219 216 213 211 211 199 189 189 201 212 211 207 207 209 211 211 212 218 217 218 223
279 253 200 234 243 193 198 195 202 210 236 279 326 17 25 21 31 32 12 350 327 278 250 233 223 220 214 212 198 182 193 209 213 203 203 211 215 213 214 218 219 216 220 224
245 319 59 259 235 199 202 212 189 201 205 140 58 44 30 23 38 40 22 10 10 0 335 295 256 214 205 199 165 173 199 212 207 202 210 216 215 214 220 222 220 222 226 225
152 102 227 249 276 176 165 215 210 164 139 130 118 92 51 38 46 48 36 25 25 22 18 15 16 29 59 90 119 159 207 237 237 227 235 233 222 227 230 226 225 230 232 231
127 181 267 284 208 153 149 249 199 160 156 158 157 95 42 24 42 52 43 32 29 30 33 34 34 41 66 64 67 68 2 262 239 217 225 227 234 241 236 229 235 236 237 232
129 168 236 252 182 142 107 276 207 168 177 186 127 84 39 3 35 51 46 40 38 38 42 40 29 41 61 58 56 39 359 334 318 258 234 235 239 242 237 232 243 248 250 245
153 211 259 256 138 122 171 242 185 158 161 138 109 128 130 68 52 53 50 45 43 47 47 36 28 49 56 49 38 12 15 25 21 2 305 274 269 261 258 251 256 257 260 259
145 197 257 201 146 179 211 195 115 117 116 111 105 101 93 78 65 59 54 46 46 53 45 29 30 52 54 36 6 9 27 31 22 11 2 360 351 329 304 279 273 273 272 275
184 208 240 217 198 197 154 131 122 118 116 117 110 103 93 79 69 60 56 48 43 56 49 29 24 44 50 11 2 19 28 21 10 5 3 1 356 336 323 306 291 288 285 286
225 260 237 227 203 114 129 124 116 115 114 114 111 109 98 86 75 65 53 47 43 54 51 27 12 25 26 1 10 31 28 12 2 0 354 351 346 332 320 311 304 299 296 292
235 239 119 58 141 124 107 107 108 104 105 114 114 112 111 105 96 90 79 57 58 64 55 16 360 5 1 4 21 28 18 4 355 351 344 338 333 319 311 295 291 295 295 292
215 203 164 165 141 123 114 112 113 109 99 100 111 117 113 108 108 102 87 68 59 43 18 339 340 339 336 344 11 18 357 344 337 331 328 326 322 319 300 288 293 290 280 278
155 118 114 116 106 104 107 109 110 110 116 112 109 117 119 117 110 98 77 48 7 308 302 308 320 320 317 326 341 343 320 313 311 315 316 316 316 315 316 314 304 296 294 293
104 101 92 97 105 102 105 105 103 101 106 113 116 113 111 109 101 88 295 281 284 297 303 306 309 304 306 316 321 315 309 307 308 300 302 304 305 305 304 308 313 313 309 302
63 93 112 107 98 98 101 105 103 100 99 97 106 118 125 128 163 255 269 286 312 311 305 308 303 296 306 316 310 305 306 304 302 299 301 302 304 304 303 303 303 305 308 307
91 91 98 100 101 102 105 110 112 116 120 123 131 154 182 198 248 278 286 288 296 293 295 298 293 294 311 315 312 310 307 313 318 310 310 311 310 308 307 306 306 306 306 308
101 101 106 108 105 100 98 109 125 135 139 148 192 237 265 285 297 294 294 296 279 275 282 285 290 305 318 321 318 314 315 317 323 321 313 311 310 308 307 307 307 306 304 304
96 107 120 126 125 118 115 118 137 150 176 224 252 272 276 271 272 278 288 305 313 309 306 307 310 323 336 337 336 328 323 318 319 317 316 314 312 310 309 307 307 306 307 309
83 88 90 97 107 118 132 165 205 238 264 274 273 272 272 270 268 275 289 307 306 301 310 333 347 357 349 345 350 337 330 327 325 323 320 317 316 315 314 311 309 308 308 311
81 85 87 88 93 114 166 246 269 285 290 289 284 285 286 285 285 285 287 280 271 274 305 341 1 4 355 348 356 346 339 334 330 328 327 324 321 318 315 313 311 310 309 311
81 84 87 85 52 354 334 327 311 298 302 302 275 271 276 288 300 295 281 295 326 2 19 22 19 6 359 358 359 351 344 339 336 332 327 324 321 318 317 315 314 313 312 313
66 56 40 15 347 332 333 338 322 309 314 316 305 295 301 312 331 353 6 307 359 35 42 29 19 15 13 10 360 352 346 341 336 330 326 322 319 317 317 317 316 315 313 313
15 343 339 332 320 315 330 342 340 328 318 314 314 313 306 303 320 350 1 34 57 57 49 32 20 20 18 12 360 353 346 341 335 330 325 321 318 317 317 317 316 317 318 319
329 341 329 324 346 2 346 334 338 334 327 325 329 327 325 27 38 42 73 77 68 64 50 33 30 24 18 8 357 350 343 337 332 328 325 324 322 320 319 319 320 320 320 321
5 358 7 20 16 326 304 316 332 342 350 357 8 19 25 47 87 82 80 78 72 63 48 31 24 18 11 359 354 349 343 340 338 335 331 329 328 328 326 326 326 325 325 326
24 359 338 318 291 291 303 315 315 314 325 345 7 33 54 69 82 82 79 75 68 57 43 24 11 8 3 359 354 351 348 343 341 339 336 335 334 334 332 333 332 332 331 331
5 354 342 334 326 319 310 301 295 298 299 295 49 69 80 86 86 83 78 67 57 47 34 21 12 6 3 1 359 356 352 348 346 344 341 340 338 337 338 338 336 336 336 336